Weather History for Tehachapi, CA

Change the Weather History Date:

Monday, May 12, 2014

  Actual Average Record
Temperature  
Mean Temperature 52 °F -  
Max Temperature 73 °F 72 °F 86 °F (2013)
Min Temperature 32 °F 43 °F 32 °F (2014)
Degree Days  
Heating Degree Days 12    
Growing Degree Days 2 (Base 50)    
Moisture  
Dew Point 21 °F    
Average Humidity 33    
Maximum Humidity 69    
Minimum Humidity 10    
Precipitation  
Precipitation 0.00 in - - ()
Sea Level Pressure  
Sea Level Pressure 30.17 in    
Wind  
Wind Speed 6 mph (ENE)    
Max Wind Speed 17 mph    
Max Gust Speed 26 mph    
Visibility 10 miles    
Events Rain    
Averages and records for this station are not official NWS values.
T = Trace of Precipitation, MM = Missing Value Source: NWS Daily Summary

Daily Weather History Graph

Daily Weather History Graph

Search for Another Location

Airport:

Trip Planner

Search our weather history database for the weather conditions in past years. The results will help you decide how hot, cold, wet, or windy it might be!

Date:

Astronomy

May. 12, 2014 Rise Set
Actual Time 5:52 AM PDT 7:48 PM PDT
Civil Twilight 5:24 AM PDT 8:16 PM PDT
Nautical Twilight 4:50 AM PDT 8:50 PM PDT
Astronomical Twilight 4:14 AM PDT 9:26 PM PDT
Moon 5:55 PM PDT (5/12) 4:28 AM PDT (5/12)
Length of Visible Light 14h 52m
Length of Day
13h 56m
Waxing Gibbous, 95% of the Moon is Illuminated
May 12
Waxing Gibbous
May 14
Full
May 21
Last Quarter
May 28
New
Jun 5
First Quarter

Hourly Weather History & Observations

Time (PDT) Temp. Windchill Dew Point Humidity Pressure Visibility Wind Dir Wind Speed Gust Speed Precip Events Conditions
12:15 AM 39.2 °F 37.0 °F 24.8 °F 56% 30.16 in 10.0 mi East 3.5 mph - N/A   Clear
12:35 AM 39.2 °F - 24.8 °F 56% 30.16 in 10.0 mi Calm Calm - N/A   Clear
12:55 AM 37.4 °F 32.1 °F 24.8 °F 60% 30.17 in 10.0 mi SE 6.9 mph - N/A   Clear
1:15 AM 37.4 °F 32.8 °F 24.8 °F 60% 30.16 in 10.0 mi SE 5.8 mph - N/A   Clear
1:35 AM 37.4 °F 33.8 °F 23.0 °F 56% 30.16 in 10.0 mi East 4.6 mph - N/A   Clear
1:55 AM 35.6 °F 32.8 °F 23.0 °F 60% 30.16 in 10.0 mi NE 3.5 mph - N/A Rain Light Rain
2:15 AM 35.6 °F - 24.8 °F 65% 30.16 in 10.0 mi Calm Calm - N/A   Clear
2:35 AM 35.6 °F - 23.0 °F 60% 30.15 in 10.0 mi Calm Calm - N/A   Clear
2:55 AM 35.6 °F - 23.0 °F 60% 30.15 in 10.0 mi Calm Calm - N/A   Clear
3:15 AM 35.6 °F 31.7 °F 23.0 °F 60% 30.15 in 10.0 mi SE 4.6 mph - N/A   Clear
3:35 AM 35.6 °F - 23.0 °F 60% 30.15 in 10.0 mi Calm Calm - N/A   Clear
3:55 AM 33.8 °F - 23.0 °F 65% 30.15 in 10.0 mi Calm Calm - N/A   Clear
4:15 AM 33.8 °F 29.6 °F 23.0 °F 65% 30.15 in 10.0 mi SE 4.6 mph - N/A   Clear
4:35 AM 32.0 °F 25.6 °F 23.0 °F 69% 30.15 in 10.0 mi SE 6.9 mph - N/A   Clear
4:55 AM 35.6 °F 30.7 °F 23.0 °F 60% 30.16 in 10.0 mi SE 5.8 mph - N/A   Clear
5:15 AM 32.0 °F 26.4 °F 23.0 °F 69% 30.16 in 10.0 mi ESE 5.8 mph - N/A   Clear
5:35 AM 33.8 °F - 23.0 °F 65% 30.16 in 10.0 mi Calm Calm - N/A   Clear
5:55 AM 32.0 °F - 21.2 °F 64% 30.16 in 9.0 mi Calm Calm - N/A   Clear
6:15 AM 32.0 °F - 23.0 °F 69% 30.16 in 10.0 mi Calm Calm - N/A   Clear
6:35 AM 33.8 °F - 23.0 °F 65% 30.17 in 9.0 mi Calm Calm - N/A   Clear
7:15 AM 44.6 °F 40.2 °F 24.8 °F 46% 30.17 in 9.0 mi East 8.1 mph - N/A   Clear
7:35 AM 55.4 °F - 23.0 °F 29% 30.18 in 10.0 mi ESE 11.5 mph - N/A   Clear
7:55 AM 59.0 °F - 19.4 °F 22% 30.18 in 10.0 mi ESE 11.5 mph 16.1 mph N/A   Clear
8:15 AM 60.8 °F - 19.4 °F 20% 30.19 in 10.0 mi ESE 11.5 mph - N/A   Clear
8:35 AM 62.6 °F - 17.6 °F 18% 30.19 in 10.0 mi ESE 17.3 mph 21.9 mph N/A   Clear
8:55 AM 64.4 °F - 17.6 °F 16% 30.20 in 10.0 mi East 16.1 mph 24.2 mph N/A   Clear
9:15 AM 64.4 °F - 15.8 °F 15% 30.20 in 10.0 mi East 15.0 mph 26.5 mph N/A   Clear
9:35 AM 64.4 °F - 15.8 °F 15% 30.20 in 10.0 mi East 16.1 mph 24.2 mph N/A   Clear
9:55 AM 66.2 °F - 15.8 °F 14% 30.20 in 10.0 mi East 16.1 mph 24.2 mph N/A   Clear
10:15 AM 66.2 °F - 15.8 °F 14% 30.20 in 9.0 mi East 15.0 mph 21.9 mph N/A   Clear
10:35 AM 66.2 °F - 17.6 °F 15% 30.20 in 9.0 mi SE 15.0 mph 23.0 mph N/A   Clear
10:55 AM 66.2 °F - 15.8 °F 14% 30.20 in 8.0 mi East 13.8 mph 21.9 mph N/A   Clear
11:15 AM 68.0 °F - 17.6 °F 15% 30.21 in 9.0 mi ESE 9.2 mph 17.3 mph N/A   Clear
11:35 AM 68.0 °F - 15.8 °F 13% 30.21 in 10.0 mi East 12.7 mph 17.3 mph N/A   Clear
1:15 PM 69.8 °F - 17.6 °F 14% 30.20 in 9.0 mi SSE 6.9 mph - N/A   Clear
1:35 PM 69.8 °F - 17.6 °F 14% 30.19 in 10.0 mi South 9.2 mph - N/A   Clear
1:55 PM 71.6 °F - 12.2 °F 10% 30.19 in 9.0 mi Calm Calm - N/A   Clear
2:15 PM 71.6 °F - 17.6 °F 13% 30.18 in 10.0 mi SSE 9.2 mph - N/A   Clear
2:35 PM 71.6 °F - 15.8 °F 12% 30.18 in 10.0 mi ESE 8.1 mph - N/A   Clear
2:55 PM 71.6 °F - 14.0 °F 11% 30.17 in 10.0 mi Calm Calm - N/A   Clear
3:15 PM 73.4 °F - 17.6 °F 12% 30.16 in 9.0 mi NW 12.7 mph 19.6 mph N/A   Clear
3:35 PM 73.4 °F - 19.4 °F 13% 30.16 in 10.0 mi NW 13.8 mph 19.6 mph N/A   Clear
3:55 PM 73.4 °F - 19.4 °F 13% 30.16 in 10.0 mi NNW 17.3 mph - N/A   Clear
4:15 PM 73.4 °F - 19.4 °F 13% 30.15 in 10.0 mi NW 13.8 mph 20.7 mph N/A   Clear
4:35 PM 71.6 °F - 21.2 °F 15% 30.15 in 10.0 mi NNW 16.1 mph 19.6 mph N/A   Clear
4:55 PM 71.6 °F - 21.2 °F 15% 30.15 in 10.0 mi NW 16.1 mph 21.9 mph N/A   Clear
5:15 PM 71.6 °F - 21.2 °F 15% 30.15 in 10.0 mi NW 15.0 mph 23.0 mph N/A   Clear
5:35 PM 71.6 °F - 21.2 °F 15% 30.15 in 10.0 mi NW 15.0 mph 23.0 mph N/A   Clear
5:55 PM 69.8 °F - 21.2 °F 16% 30.15 in 10.0 mi NNW 15.0 mph 20.7 mph N/A   Clear
6:15 PM 69.8 °F - 19.4 °F 15% 30.14 in 10.0 mi NW 16.1 mph 21.9 mph N/A   Clear
6:35 PM 68.0 °F - 19.4 °F 16% 30.14 in 10.0 mi NW 13.8 mph 18.4 mph N/A   Clear
6:55 PM 68.0 °F - 19.4 °F 16% 30.15 in 10.0 mi WNW 11.5 mph - N/A   Clear
7:15 PM 66.2 °F - 19.4 °F 17% 30.16 in 10.0 mi NW 11.5 mph - N/A   Clear
7:35 PM 64.4 °F - 17.6 °F 16% 30.16 in 10.0 mi NW 13.8 mph - N/A   Clear
7:55 PM 64.4 °F - 19.4 °F 18% 30.16 in 10.0 mi WNW 8.1 mph - N/A   Clear
8:15 PM 60.8 °F - 19.4 °F 20% 30.17 in 10.0 mi WNW 6.9 mph - N/A   Clear
8:35 PM 59.0 °F - 19.4 °F 22% 30.18 in 10.0 mi West 3.5 mph - N/A   Clear
8:55 PM 57.2 °F - 21.2 °F 25% 30.18 in 10.0 mi WSW 3.5 mph - N/A   Clear
9:15 PM 55.4 °F - 21.2 °F 26% 30.19 in 10.0 mi Calm Calm - N/A   Clear
9:35 PM 55.4 °F - 23.0 °F 29% 30.19 in 10.0 mi North 4.6 mph - N/A   Clear
9:55 PM 53.6 °F - 23.0 °F 30% 30.20 in 10.0 mi North 4.6 mph - N/A   Clear
10:15 PM 51.8 °F - 23.0 °F 33% 30.20 in 10.0 mi NNW 4.6 mph - N/A   Clear
10:35 PM 53.6 °F - 23.0 °F 30% 30.21 in 10.0 mi North 3.5 mph - N/A   Clear
11:15 PM 46.4 °F - 26.6 °F 46% 30.22 in 10.0 mi Calm Calm - N/A   Clear
11:35 PM 46.4 °F 45.2 °F 24.8 °F 43% 30.22 in 10.0 mi East 3.5 mph - N/A   Clear
11:55 PM 46.4 °F - 26.6 °F 46% 30.22 in 10.0 mi Calm Calm - N/A   Clear